Location: Tamazert
(32.6352°N, 5.2072°W)
Time: 07:01:24
(UTC+00:00)

Tiros 1 despin weight - Pass Details

Date: 14 October 2022
Orbit: 590 x 637 km, 48.2° (Epoch: 28 November)

Event Time Altitude Azimuth Distance (km) Brightness Sun altitude
Rises 17:59:40 0° 311° (NW) 2,857 ? -3.0°
Reaches altitude 10° 18:01:57 10° 314° (NW) 1,959 ? -3.5°
Maximum altitude 18:06:27 70° 38° (NE) 656 ? -4.4°
Drops below altitude 10° 18:11:00 10° 122° (ESE) 1,983 ? -5.4°
Sets 18:13:20 0° 124° (SE) 2,895 ? -5.9°
